ARIANE 5 DEB (SYLDA), 40735

Orbit data source: Space-Track

ARIANE 5 DEB (SYLDA), 40735 is space debris in HEO originally from a launch on Wed, 15 Jul 2015 UTC launched from the French Guiana (FRGUI). Debris objects in space refer to the collection of defunct objects orbiting the Earth. Examples of debris include non-operational satellites, rocket bodies, and fragments generated from explosions, collisions, or faulty payload assembly.

Loading next visibility...
Identifier
40735, 2015-034D
Orbit
HEO
Country
Flag of FRFR
Related business
Manufacturer
ADS/Bremen
Mission
Spacecraft
Bus & Motor
SYLDA 5, Unknown motor
Mass
440 kg wet, 440 kg dry
Launch date (UTC)
2015-07-15 (10 years ago)
Launch vehicle
Unknown
Launch site
French Guiana (FRGUI)
Object type
Payload
Rocket body
Debris
Shape & HBR
Cyl, 2.8 m
Radar Cross Section
27.391 m², Large (>1 m²)

Expand to show TLE details & history
Last TLE update: 1 day ago

TLE from 1 day ago
0 ARIANE 5 DEB (SYLDA)
1 40735U 15034D   25306.33536955  .01193397 -77466-6  71376-2 0  9993
2 40735   3.9053  65.2190 4756828 201.8804 128.0542  6.22089125111995
Epoch: 2025-11-02T08:02Z
TLE epoch observation values (Epoch: 2025-11-02T08:02:55.929Z)
Latitude
-0.00001°
Longitude
-97.39827°
Altitude
10,916.428 km
Speed
3.766 km/s
True Right ascension
04h 20m 44s
True Declination
0° 00' 00"
Sunlit
Object was in daylight at epoch
Visualization orbit readout
Latitude
Unknown
Longitude
Unknown
Altitude
Unknown
Speed
Unknown
Apparent Right ascension
Unknown
Apparent Declination
Unknown
Sunlit
N/A
Visualization observer readout
Local Sidereal Time
15:06:25
Azimuth
Unknown
Elevation
Unknown
Doppler factor
Unknown
Orbital elements
Apogee altitude
12,058.103 km
Perigee altitude
172.348 km
Semi-major axis
12,493.362 km
Eccentricity
0.47568
Inclination
3.9053°
RAAN
65.219°
Arg. of periapsis
201.8804°
True anomaly
158.1117°
Mean anomaly
128.0542°
Eccentric anomaly
144.05348°
Mean motion
1.55426 °/min
Orbital period
231.62 mins
BSTAR
0.0071376
Loading maneuver chart data...
Computing Atmospheric mass density...
Loading historical data...
Loading historical data...
Loading historical data...
Loading historical data...
Loading historical data...
Loading historical data...
Loading historical data...

Documentation

Showing up to 5 results
|